Portland Hillsboro, OR

5:18 AM PDT on June 28, 2017 (GMT -0700)
Portland-Hillsboro

Weather History for KHIO - April, 2014

Change the Weather History Date:

Thursday, April 24, 2014

  Actual Average Record
Temperature  
Mean Temperature 51 °F 51 °F  
Max Temperature 58 °F 63 °F 81 °F (1999)
Min Temperature 43 °F 40 °F 30 °F (1986)
Degree Days  
Heating Degree Days 14 14  
Month to date heating degree days 340 371  
Since 1 July heating degree days 4584 4485  
Cooling Degree Days 0 0  
Month to date cooling degree days 0 0  
Year to date cooling degree days 0 0  
Growing Degree Days 2 (Base 50)    
Moisture  
Dew Point 44 °F    
Average Humidity 68    
Maximum Humidity 89    
Minimum Humidity 47    
Precipitation  
Precipitation 0.36 in 0.10 in 0.98 in (1996)
Month to date precipitation 2.81 2.49  
Year to date precipitation 16.35 16.69  
Snow  
Snow 0.00 in - - ()
Month to date snowfall 0.0  
Since 1 July snowfall 0.0  
Snow Depth 0.00 in    
Sea Level Pressure  
Sea Level Pressure 29.82 in    
Wind  
Wind Speed 9 mph (SSW)    
Max Wind Speed 22 mph    
Max Gust Speed 27 mph    
Visibility 10 miles    
Events Rain    
T = Trace of Precipitation, MM = Missing Value Source: NWS Daily Summary

Daily Weather History Graph

Daily Weather History Graph

Search for Another Location

Airport or City:

Trip Planner

Search our weather history database for the weather conditions in past years. The results will help you decide how hot, cold, wet, or windy it might be!

Date:

Astronomy

Apr. 24, 2014 Rise Set
Actual Time 6:10 AM PDT 8:09 PM PDT
Civil Twilight 5:38 AM PDT 8:41 PM PDT
Nautical Twilight 4:59 AM PDT 9:21 PM PDT
Astronomical Twilight 4:16 AM PDT 10:04 PM PDT
Moon 3:40 AM PDT (4/24) 3:17 PM PDT (4/24)
Length of Visible Light 15h 03m
Length of Day
13h 59m
Waning Crescent, 23% of the Moon is Illuminated
Apr 24
Waning Crescent
Apr 28
New
May 6
First Quarter
May 14
Full
May 21
Last Quarter

Hourly Weather History & Observations

Time (PDT) Temp. Dew Point Humidity Pressure Visibility Wind Dir Wind Speed Gust Speed Precip Events Conditions
12:53 AM 53.1 °F 48.9 °F 86% 29.73 in 10.0 mi South 12.7 mph 24.2 mph 0.01 in Rain Light Rain
1:36 AM 52.0 °F 48.9 °F 89% 29.73 in 10.0 mi South 15.0 mph - 0.01 in Rain Light Rain
1:53 AM 52.0 °F 48.9 °F 89% 29.72 in 10.0 mi South 16.1 mph - 0.02 in Rain Light Rain
2:53 AM 51.1 °F 48.9 °F 92% 29.71 in 10.0 mi South 16.1 mph - 0.01 in   Overcast
3:21 AM 51.1 °F 48.9 °F 92% 29.69 in 10.0 mi SSE 15.0 mph - 0.01 in Rain Light Rain
3:53 AM 51.1 °F 48.9 °F 92% 29.70 in 10.0 mi South 16.1 mph 24.2 mph 0.01 in   Overcast
4:16 AM 51.1 °F 48.9 °F 92% 29.69 in 9.0 mi SSE 19.6 mph 27.6 mph 0.00 in Rain Light Rain
4:22 AM 51.1 °F 48.9 °F 92% 29.69 in 10.0 mi SSE 17.3 mph 27.6 mph 0.00 in Rain Light Rain
4:53 AM 52.0 °F 48.9 °F 89% 29.70 in 10.0 mi SSE 15.0 mph - 0.00 in   Mostly Cloudy
5:53 AM 51.1 °F 48.9 °F 92% 29.73 in 7.0 mi South 9.2 mph - 0.04 in Rain Light Rain
6:53 AM 51.1 °F 46.9 °F 86% 29.75 in 10.0 mi SSW 4.6 mph - 0.16 in   Mostly Cloudy
7:53 AM 51.1 °F 48.0 °F 89% 29.78 in 10.0 mi SSW 8.1 mph - N/A   Mostly Cloudy
8:53 AM 53.1 °F 46.9 °F 80% 29.81 in 10.0 mi SSW 6.9 mph - N/A   Mostly Cloudy
9:53 AM 54.0 °F 43.0 °F 66% 29.83 in 10.0 mi SSW 9.2 mph - 0.00 in Rain Light Rain
10:53 AM 54.0 °F 46.0 °F 75% 29.87 in 10.0 mi SW 6.9 mph - 0.11 in   Overcast
11:53 AM 54.0 °F 43.0 °F 66% 29.88 in 10.0 mi WSW 11.5 mph - N/A   Mostly Cloudy
12:53 PM 57.0 °F 42.1 °F 57% 29.89 in 10.0 mi West 9.2 mph - 0.00 in   Mostly Cloudy
1:34 PM 53.1 °F 45.0 °F 74% 29.91 in 10.0 mi SW 11.5 mph - 0.02 in Rain Light Rain
1:53 PM 55.0 °F 45.0 °F 69% 29.91 in 10.0 mi SW 11.5 mph - 0.02 in   Mostly Cloudy
2:53 PM 55.9 °F 39.0 °F 53% 29.91 in 10.0 mi WSW 18.4 mph 24.2 mph N/A   Mostly Cloudy
3:53 PM 57.9 °F 37.0 °F 46% 29.90 in 10.0 mi WSW 16.1 mph - N/A   Partly Cloudy
4:53 PM 54.0 °F 39.9 °F 59% 29.91 in 10.0 mi WNW 12.7 mph - N/A   Mostly Cloudy
5:53 PM 51.1 °F 39.0 °F 63% 29.93 in 8.0 mi West 8.1 mph 23.0 mph 0.00 in Rain Light Rain
6:53 PM 53.1 °F 39.9 °F 61% 29.91 in 10.0 mi SSW 5.8 mph - 0.00 in   Mostly Cloudy
7:53 PM 50.0 °F 39.0 °F 66% 29.91 in 10.0 mi WNW 5.8 mph - N/A   Scattered Clouds
8:53 PM 48.9 °F 39.0 °F 69% 29.91 in 10.0 mi WSW 4.6 mph - N/A   Mostly Cloudy
9:53 PM 48.9 °F 39.0 °F 69% 29.92 in 10.0 mi West 3.5 mph - N/A   Clear
10:53 PM 48.0 °F 39.9 °F 74% 29.93 in 10.0 mi Calm Calm - N/A   Overcast
11:53 PM 48.0 °F 39.9 °F 74% 29.91 in 10.0 mi SW 3.5 mph - N/A   Overcast